CST,Max TemperatureF,Mean TemperatureF,Min TemperatureF,Max Dew PointF,MeanDew PointF,Min DewpointF,Max Humidity, Mean Humidity, Min Humidity, Max Sea Level PressureIn, Mean Sea Level PressureIn, Min Sea Level PressureIn, Max VisibilityMiles, Mean VisibilityMiles, Min VisibilityMiles, Max Wind SpeedMPH, Mean Wind SpeedMPH, Max Gust SpeedMPH,PrecipitationIn, CloudCover, Events, WindDirDegrees
2013-12-1,63,55,47,50,41,35,72,56,39,30.25,30.12,29.97,10,10,10,13,4,16,0.00,7,,198
2013-12-2,68,57,46,58,52,45,100,87,73,29.95,29.79,29.72,10,6,0,9,3,17,0.00,6,Fog,223
2013-12-3,79,66,52,63,59,52,100,74,48,29.74,29.69,29.61,10,5,0,18,7,26,0.00,4,Fog,180
2013-12-4,81,73,64,66,64,62,93,76,58,29.87,29.78,29.73,10,7,3,22,10,29,0.00,5,,189
2013-12-5,73,56,40,72,51,38,100,95,89,30.10,29.95,29.86,7,4,0,20,13,29,T,8,Rain,351
2013-12-6,40,36,31,37,35,28,92,87,82,30.41,30.16,30.04,10,7,1,20,11,26,0.93,8,Rain-Snow-Thunderstorm,14
2013-12-7,34,32,30,28,26,25,92,81,69,30.51,30.41,30.35,10,9,2,18,11,25,T,8,,24
2013-12-8,38,34,30,36,33,28,100,91,82,30.30,30.18,30.12,10,5,2,8,3,10,0.02,8,Rain,21
2013-12-9,38,36,34,36,33,32,100,93,85,30.30,30.23,30.16,9,4,2,15,9,18,0.21,8,Rain,16
2013-12-10,45,36,27,31,29,26,100,77,53,30.48,30.40,30.31,10,8,0,16,6,24,T,3,Fog,9
2013-12-11,53,39,25,35,29,24,100,72,44,30.56,30.45,30.40,10,7,0,13,5,20,0.00,0,Fog,32
2013-12-12,49,38,26,28,25,24,92,66,39,30.63,30.54,30.43,10,10,6,15,5,20,0.00,0,,36
2013-12-13,55,41,27,54,37,25,93,69,45,30.39,30.08,29.84,10,9,4,15,3,22,0.48,4,Rain,147
2013-12-14,55,48,41,54,44,34,100,88,76,30.22,29.97,29.84,10,8,1,24,8,32,0.43,8,Rain,326
2013-12-15,46,38,30,32,31,28,92,75,58,30.36,30.30,30.22,10,7,4,15,4,21,0.00,3,,343
2013-12-16,62,46,29,36,31,28,100,64,27,30.35,30.29,30.22,10,7,2,13,4,16,0.00,0,,200
2013-12-17,68,50,32,41,36,29,96,64,32,30.33,30.28,30.23,10,10,9,13,3,16,0.00,0,,232
2013-12-18,68,50,31,43,36,30,100,69,37,30.36,30.28,30.17,10,5,0,13,4,18,0.00,0,Fog,179
2013-12-19,73,58,42,55,47,39,89,69,49,30.17,30.07,29.96,10,9,5,21,8,28,0.00,4,,170
2013-12-20,71,67,62,67,62,55,90,84,78,30.00,29.92,29.82,10,10,3,16,7,23,0.06,7,Rain,161
2013-12-21,74,64,53,70,61,53,100,90,79,29.82,29.68,29.52,10,8,0,37,13,46,1.11,7,Fog-Rain-Thunderstorm,201
2013-12-22,57,48,38,54,50,31,100,87,73,30.32,29.96,29.81,10,6,0,21,8,24,0.02,8,Fog-Rain,250
2013-12-23,45,38,30,31,28,27,92,73,53,30.56,30.46,30.33,10,10,9,17,8,22,0.00,4,,14
2013-12-24,46,37,27,31,28,25,92,73,53,30.62,30.52,30.41,10,10,6,13,4,16,0.00,0,,60
2013-12-25,53,39,25,34,29,24,100,69,38,30.45,30.39,30.33,10,10,6,8,1,12,0.00,0,,116
2013-12-26,55,42,29,35,32,28,100,73,46,30.46,30.40,30.36,10,9,2,10,3,14,0.00,0,,50
2013-12-27,56,43,29,36,31,26,100,66,32,30.50,30.42,30.36,10,8,2,9,2,12,0.00,0,,50
2013-12-28,49,43,37,40,37,33,89,78,66,30.35,30.18,30.02,10,10,6,8,2,8,T,4,Rain,34
2013-12-29,63,47,31,42,35,29,100,64,27,30.15,30.07,30.02,10,5,0,8,1,12,T,2,Fog,202
2013-12-30,50,44,38,41,32,30,80,73,65,30.42,30.28,30.15,10,10,10,16,7,22,0.00,8,,13
2013-12-31,45,38,31,33,31,29,89,73,57,30.50,30.42,30.32,10,10,5,10,3,18,0.00,1,,41